Photometre #19[NE_1.6] OHP_OBSERVATOIRE AOT

File : 20200924_19.hum

24/09/2020,06:17:14,TEMP=16.1,BA=5.64,STAT.A=Abs.,ExtBa=12.46
24/09/2020,06:20:48,TEMP=16.3,BA=5.64,STAT.A=Abs.,ExtBa=12.35
24/09/2020,06:24:59,TEMP=16.3,BA=5.64,STAT.A=Abs.,ExtBa=12.32
24/09/2020,06:29:59,TEMP=16.3,BA=5.64,STAT.A=Abs.,ExtBa=12.32
24/09/2020,06:36:00,TEMP=16.2,BA=5.60,STAT.A=Abs.,ExtBa=12.35
24/09/2020,06:43:25,TEMP=16.1,BA=5.64,STAT.A=Abs.,ExtBa=12.35
24/09/2020,06:52:49,TEMP=16.8,BA=5.64,STAT.B=Abs.,ExtBa=12.36
24/09/2020,07:02:16,TEMP=17.8,BA=5.60,STAT.A=Abs.,ExtBa=12.33
24/09/2020,07:04:17,TEMP=18.1,BA=5.60,STAT.A=Abs.,ExtBa=12.33
24/09/2020,07:08:02,TEMP=18.1,BA=5.60,STAT.A=Abs.,ExtBa=12.32
24/09/2020,07:14:31,TEMP=18.3,BA=5.64,STAT.A=Abs.,ExtBa=12.36
24/09/2020,07:21:58,TEMP=18.9,BA=5.64,STAT.C=Abs.,ExtBa=12.37
24/09/2020,07:36:08,TEMP=20.6,BA=5.60,STAT.A=Abs.,ExtBa=12.32
24/09/2020,07:40:55,TEMP=20.4,BA=5.64,STAT.A=Abs.,ExtBa=12.33
24/09/2020,07:53:16,TEMP=19.7,BA=5.64,STAT.A=Abs.,ExtBa=12.39
24/09/2020,08:08:34,TEMP=21.4,BA=5.64,STAT.A=Abs.,ExtBa=12.42
24/09/2020,08:28:06,TEMP=21.1,BA=5.64,STAT.B=Abs.,ExtBa=12.42
24/09/2020,08:37:00,TEMP=21.3,BA=5.60,STAT.F,ExtBa=12.33
24/09/2020,08:50:41,TEMP=22.3,BA=5.60,STAT.D=Abs.,ExtBa=12.32
24/09/2020,08:59:29,TEMP=22.9,BA=5.60,STAT.D=Abs.,ExtBa=12.36
24/09/2020,09:14:29,TEMP=23.4,BA=5.64,STAT.D=Abs.,ExtBa=12.39
24/09/2020,09:29:31,TEMP=24.5,BA=5.64,STAT.F,ExtBa=12.41
24/09/2020,09:54:42,TEMP=24.8,BA=5.60,STAT.D=Abs.,ExtBa=12.39
24/09/2020,09:59:29,TEMP=25.1,BA=5.60,STAT.D=Abs.,ExtBa=12.36
24/09/2020,10:14:30,TEMP=25.5,BA=5.64,STAT.D=Abs.,ExtBa=12.40
24/09/2020,10:44:29,TEMP=26.7,BA=5.64,STAT.D=Abs.,ExtBa=12.40
24/09/2020,10:59:29,TEMP=26.0,BA=5.64,STAT.D=Abs.,ExtBa=12.41
24/09/2020,11:14:30,TEMP=25.6,BA=5.64,STAT.D=Abs.,ExtBa=12.40
24/09/2020,11:29:31,TEMP=26.1,BA=5.64,STAT.F,ExtBa=12.43
24/09/2020,11:44:29,TEMP=25.1,BA=5.64,STAT.D=Abs.,ExtBa=12.40
24/09/2020,11:59:30,TEMP=24.4,BA=5.64,STAT.D=Abs.,ExtBa=12.39
24/09/2020,12:14:29,TEMP=23.5,BA=5.64,STAT.D=Abs.,ExtBa=12.39
24/09/2020,12:29:31,TEMP=22.9,BA=5.64,STAT.F,ExtBa=12.41
24/09/2020,12:44:29,TEMP=24.5,BA=5.64,STAT.D=Abs.,ExtBa=12.39
24/09/2020,12:59:29,TEMP=24.1,BA=5.64,STAT.D=Abs.,ExtBa=12.39
24/09/2020,13:14:29,TEMP=24.3,BA=5.64,STAT.D=Abs.,ExtBa=12.38
24/09/2020,13:29:31,TEMP=24.5,BA=5.64,STAT.F,ExtBa=12.39
24/09/2020,13:44:29,TEMP=23.8,BA=5.60,STAT.D=Abs.,ExtBa=12.35
24/09/2020,13:59:29,TEMP=23.4,BA=5.64,STAT.D=Abs.,ExtBa=12.40
24/09/2020,14:14:29,TEMP=23.0,BA=5.64,STAT.D=Abs.,ExtBa=12.39
24/09/2020,14:29:30,TEMP=22.6,BA=5.64,STAT.F,ExtBa=12.39
24/09/2020,14:31:16,TEMP=22.7,BA=5.60,STAT.B=Abs.,ExtBa=12.28
24/09/2020,14:50:28,TEMP=21.8,BA=5.64,STAT.A=Abs.,ExtBa=12.39
24/09/2020,15:05:44,TEMP=21.0,BA=5.64,STAT.A=Abs.,ExtBa=12.38
24/09/2020,15:18:05,TEMP=20.5,BA=5.64,STAT.A=Abs.,ExtBa=12.37
24/09/2020,15:28:21,TEMP=20.1,BA=5.64,STAT.A=Abs.,ExtBa=12.36
24/09/2020,15:37:02,TEMP=19.9,BA=5.64,STAT.C=Abs.,ExtBa=12.35
24/09/2020,15:44:29,TEMP=19.7,BA=5.64,STAT.A=Abs.,ExtBa=12.33
24/09/2020,15:50:58,TEMP=19.5,BA=5.64,STAT.A=Abs.,ExtBa=12.32
24/09/2020,15:56:39,TEMP=19.3,BA=5.64,STAT.A=Abs.,ExtBa=12.31
24/09/2020,16:01:41,TEMP=19.3,BA=5.64,STAT.A=Abs.,ExtBa=12.30
24/09/2020,16:06:11,TEMP=19.2,BA=5.64,STAT.B=Abs.,ExtBa=12.28
24/09/2020,16:15:35,TEMP=19.0,BA=5.64,STAT.A=Abs.,ExtBa=12.31
24/09/2020,16:23:00,TEMP=18.8,BA=5.64,STAT.A=Abs.,ExtBa=12.30
24/09/2020,16:29:01,TEMP=18.6,BA=5.64,STAT.A=Abs.,ExtBa=12.29
24/09/2020,16:34:00,TEMP=18.5,BA=5.60,STAT.A=Abs.,ExtBa=12.28
24/09/2020,16:38:11,TEMP=18.4,BA=5.60,STAT.A=Abs.,ExtBa=12.25
24/09/2020,16:41:46,TEMP=18.3,BA=5.64,STAT.A=Abs.,ExtBa=12.23